| time (UTC) | temp F | wind direction | speed MPH | gust MPH | rain 1hr in | rain 24hr in | rain mn in | humidity % | barometer mb |
| 20260902101815 | 70 | 48 | 7.0 | 15.0 | 0.00 | 0.00 | 0.00 | 97 | 946.8 |
| 20260902101314 | 70 | 57 | 7.0 | 15.0 | 0.00 | 0.00 | 0.00 | 97 | 946.9 |
| 20260902100813 | 70 | 49 | 6.0 | 15.0 | 0.00 | 0.00 | 0.00 | 98 | 946.7 |
| 20260902095239 | 70 | 53 | 6.0 | 19.0 | 0.00 | 0.00 | 0.00 | 98 | 946.9 |
| 20260902094738 | 70 | 57 | 7.0 | 18.0 | 0.00 | 0.00 | 0.00 | 98 | 947.1 |
| 20260902094237 | 70 | 58 | 7.0 | 18.0 | 0.00 | 0.00 | 0.00 | 98 | 947.2 |
| 20260902093736 | 70 | 53 | 7.0 | 13.0 | 0.00 | 0.00 | 0.00 | 98 | 947.3 |
| 20260902092719 | 70 | 50 | 7.0 | 15.0 | 0.00 | 0.00 | 0.00 | 98 | 947.3 |
| 20260902092218 | 70 | 49 | 7.0 | 15.0 | 0.00 | 0.00 | 0.00 | 98 | 947.3 |
| 20260902091717 | 70 | 46 | 8.0 | 14.0 | 0.00 | 0.00 | 0.00 | 98 | 947.5 |
| 20260902091216 | 70 | 46 | 7.0 | 13.0 | 0.00 | 0.00 | 0.00 | 98 | 947.3 |
| 20260902090715 | 70 | 42 | 7.0 | 14.0 | 0.00 | 0.00 | 0.00 | 98 | 947.3 |
| 20260902090214 | 70 | 46 | 6.0 | 14.0 | 0.00 | 0.00 | 0.00 | 98 | 947.6 |
| 20260902085713 | 70 | 54 | 5.0 | 14.0 | 0.00 | 0.00 | 0.00 | 98 | 947.4 |
| 20260902085212 | 70 | 51 | 6.0 | 14.0 | 0.00 | 0.00 | 0.00 | 98 | 947.6 |
| 20260902084711 | 70 | 60 | 4.0 | 12.0 | 0.00 | 0.00 | 0.00 | 98 | 947.7 |
| 20260902084210 | 70 | 51 | 3.0 | 13.0 | 0.00 | 0.00 | 0.00 | 98 | 947.7 |
| 20260902083709 | 70 | 57 | 3.0 | 13.0 | 0.00 | 0.00 | 0.00 | 98 | 948.1 |
| 20260902083208 | 70 | 58 | 3.0 | 13.0 | 0.00 | 0.00 | 0.00 | 98 | 947.9 |
| 20260902082151 | 70 | 73 | 3.0 | 11.0 | 0.00 | 0.00 | 0.00 | 98 | 948.2 |
| 20260902081649 | 70 | 65 | 4.0 | 11.0 | 0.00 | 0.00 | 0.00 | 98 | 947.9 |
| 20260902081148 | 70 | 68 | 3.0 | 11.0 | 0.00 | 0.00 | 0.00 | 98 | 948.2 |
| 20260902080647 | 70 | 78 | 4.0 | 12.0 | 0.00 | 0.00 | 0.00 | 98 | 948.1 |
| 20260902080146 | 70 | 75 | 5.0 | 12.0 | 0.00 | 0.00 | 0.00 | 98 | 948.1 |
| 20260902075645 | 70 | 68 | 4.0 | 12.0 | 0.00 | 0.00 | 0.00 | 98 | 947.9 |
| 20260902075144 | 70 | 43 | 5.0 | 12.0 | 0.00 | 0.00 | 0.00 | 98 | 947.9 |
| 20260902074643 | 70 | 49 | 3.0 | 12.0 | 0.00 | 0.00 | 0.00 | 98 | 947.6 |
| 20260902074141 | 70 | 57 | 4.0 | 12.0 | 0.00 | 0.00 | 0.00 | 98 | 948.0 |
| 20260902073640 | 70 | 67 | 4.0 | 12.0 | 0.00 | 0.00 | 0.00 | 98 | 948.1 |
| 20260902073139 | 70 | 67 | 4.0 | 13.0 | 0.00 | 0.00 | 0.00 | 98 | 948.2 |
| 20260902072638 | 70 | 79 | 6.0 | 14.0 | 0.00 | 0.00 | 0.00 | 98 | 948.3 |
| 20260902072137 | 70 | 85 | 5.0 | 14.0 | 0.00 | 0.00 | 0.00 | 98 | 948.2 |
| 20260902071119 | 70 | 69 | 4.0 | 11.0 | 0.00 | 0.00 | 0.00 | 98 | 947.9 |
| 20260902070618 | 70 | 82 | 4.0 | 11.0 | 0.00 | 0.00 | 0.00 | 98 | 948.1 |
| 20260902070117 | 70 | 74 | 5.0 | 11.0 | 0.00 | 0.00 | 0.00 | 98 | 947.9 |
| 20260902065059 | 70 | 50 | 4.0 | 12.0 | 0.00 | 0.00 | 0.00 | 98 | 947.8 |
| 20260902064558 | 70 | 50 | 4.0 | 11.0 | 0.00 | 0.00 | 0.00 | 98 | 947.7 |
| 20260902064057 | 70 | 42 | 5.0 | 13.0 | 0.00 | 0.00 | 0.00 | 98 | 947.7 |
| 20260902063556 | 70 | 50 | 5.0 | 13.0 | 0.00 | 0.00 | 0.00 | 98 | 948.1 |
| 20260902063054 | 70 | 53 | 5.0 | 13.0 | 0.00 | 0.00 | 0.00 | 98 | 947.9 |
| 20260902062037 | 70 | 50 | 6.0 | 13.0 | 0.00 | 0.00 | 0.00 | 98 | 947.9 |
| 20260902061535 | 70 | 50 | 4.0 | 15.0 | 0.00 | 0.00 | 0.00 | 98 | 948.2 |
| 20260902060518 | 69 | 51 | 4.0 | 11.0 | 0.00 | 0.00 | 0.00 | 97 | 947.7 |
| 20260902060017 | 69 | 46 | 5.0 | 11.0 | 0.00 | 0.00 | 0.00 | 97 | 947.5 |
| 20260902055517 | 69 | 60 | 4.0 | 13.0 | 0.00 | 0.00 | 0.00 | 97 | 947.5 |
| 20260902055015 | 69 | 55 | 5.0 | 13.0 | 0.00 | 0.00 | 0.00 | 97 | 947.4 |
| 20260902053957 | 69 | 63 | 5.0 | 14.0 | 0.00 | 0.00 | 0.00 | 97 | 947.5 |
| 20260902053457 | 69 | 55 | 4.0 | 14.0 | 0.00 | 0.00 | 0.00 | 97 | 947.6 |
| 20260902052955 | 69 | 71 | 7.0 | 15.0 | 0.00 | 0.00 | 0.00 | 97 | 947.4 |
| 20260902052453 | 69 | 74 | 6.0 | 15.0 | 0.00 | 0.00 | 0.00 | 97 | 947.5 |
| 20260902051952 | 69 | 76 | 6.0 | 12.0 | 0.00 | 0.00 | 0.00 | 96 | 947.4 |
| 20260902051451 | 70 | 68 | 5.0 | 13.0 | 0.00 | 0.00 | 0.00 | 96 | 947.8 |
| 20260902050950 | 70 | 74 | 3.0 | 13.0 | 0.00 | 0.00 | 0.00 | 96 | 947.6 |
| 20260902050450 | 70 | 70 | 4.0 | 12.0 | 0.00 | 0.00 | 0.00 | 95 | 947.6 |
| 20260902045948 | 70 | 75 | 5.0 | 15.0 | 0.00 | 0.00 | 0.00 | 95 | 947.9 |
| 20260902045446 | 70 | 85 | 5.0 | 15.0 | 0.00 | 0.00 | 0.00 | 95 | 947.6 |
| 20260902044945 | 70 | 82 | 6.0 | 14.0 | 0.00 | 0.00 | 0.00 | 94 | 947.8 |
| 20260902044444 | 70 | 80 | 8.0 | 14.0 | 0.00 | 0.00 | 0.00 | 94 | 947.5 |
| 20260902043942 | 69 | 84 | 4.0 | 12.0 | 0.00 | 0.00 | 0.00 | 93 | 947.8 |
| 20260902043441 | 69 | 62 | 4.0 | 12.0 | 0.00 | 0.00 | 0.00 | 93 | 947.5 |
| 20260902042425 | 69 | 61 | 5.0 | 13.0 | 0.00 | 0.00 | 0.00 | 93 | 947.7 |
| 20260902040851 | 70 | 45 | 6.0 | 14.0 | 0.00 | 0.00 | 0.00 | 90 | 947.3 |
| 20260902035833 | 71 | 61 | 5.0 | 15.0 | 0.00 | 0.00 | 0.00 | 89 | 947.2 |
| 20260902035333 | 71 | 64 | 6.0 | 18.0 | 0.00 | 0.00 | 0.00 | 87 | 947.5 |
| 20260902034832 | 71 | 57 | 6.0 | 20.0 | 0.00 | 0.00 | 0.00 | 89 | 947.6 |
| 20260902034330 | 71 | 63 | 5.0 | 20.0 | 0.00 | 0.00 | 0.00 | 88 | 947.4 |
| 20260902033829 | 71 | 64 | 5.0 | 15.0 | 0.00 | 0.00 | 0.00 | 88 | 947.1 |
| 20260902033329 | 71 | 51 | 6.0 | 14.0 | 0.00 | 0.00 | 0.00 | 88 | 947.2 |
| 20260902032827 | 71 | 73 | 5.0 | 15.0 | 0.00 | 0.00 | 0.00 | 88 | 947.3 |
| 20260902032326 | 72 | 68 | 5.0 | 15.0 | 0.00 | 0.00 | 0.00 | 89 | 947.2 |
| 20260902031825 | 71 | 72 | 5.0 | 15.0 | 0.00 | 0.00 | 0.00 | 87 | 947.2 |
| 20260902030808 | 72 | 54 | 5.0 | 14.0 | 0.00 | 0.00 | 0.00 | 89 | 947.3 |
| 20260902030306 | 72 | 62 | 5.0 | 14.0 | 0.00 | 0.00 | 0.00 | 88 | 947.2 |
| 20260902025806 | 72 | 72 | 4.0 | 11.0 | 0.00 | 0.00 | 0.00 | 88 | 947.1 |
| 20260902025306 | 72 | 73 | 4.0 | 11.0 | 0.00 | 0.00 | 0.00 | 89 | 947.5 |
| 20260902024804 | 72 | 82 | 3.0 | 11.0 | 0.00 | 0.00 | 0.00 | 89 | 947.4 |
| 20260902024303 | 73 | 90 | 3.0 | 11.0 | 0.00 | 0.00 | 0.00 | 89 | 947.4 |
| 20260902023802 | 72 | 68 | 4.0 | 11.0 | 0.00 | 0.00 | 0.00 | 89 | 947.5 |
| 20260902023301 | 72 | 56 | 4.0 | 11.0 | 0.00 | 0.00 | 0.00 | 89 | 947.2 |
| 20260902022800 | 72 | 72 | 4.0 | 11.0 | 0.00 | 0.00 | 0.00 | 88 | 947.4 |
| 20260902022259 | 72 | 96 | 4.0 | 11.0 | 0.00 | 0.00 | 0.00 | 89 | 947.5 |
| 20260902021758 | 72 | 92 | 3.0 | 11.0 | 0.00 | 0.00 | 0.00 | 89 | 947.6 |
| 20260902021257 | 73 | 92 | 4.0 | 12.0 | 0.00 | 0.00 | 0.00 | 87 | 947.5 |
| 20260902020756 | 74 | 83 | 3.0 | 12.0 | 0.00 | 0.00 | 0.00 | 85 | 947.9 |
| 20260902020255 | 76 | 114 | 4.0 | 12.0 | 0.00 | 0.00 | 0.00 | 82 | 947.7 |
| 20260902015754 | 76 | 38 | 2.0 | 12.0 | 0.00 | 0.00 | 0.00 | 82 | 947.5 |
| 20260902014736 | 76 | 21 | 1.0 | 12.0 | 0.00 | 0.00 | 0.00 | 80 | 947.6 |
| 20260902014235 | 76 | 44 | 2.0 | 12.0 | 0.00 | 0.00 | 0.00 | 81 | 948.1 |
| 20260902013734 | 76 | 99 | 4.0 | 12.0 | 0.00 | 0.00 | 0.00 | 80 | 947.8 |
| 20260902013233 | 77 | 57 | 5.0 | 12.0 | 0.00 | 0.00 | 0.00 | 79 | 947.7 |
| 20260902012732 | 77 | 23 | 2.0 | 13.0 | 0.00 | 0.00 | 0.00 | 80 | 947.9 |
| 20260902011714 | 77 | 48 | 2.0 | 13.0 | 0.00 | 0.00 | 0.00 | 83 | 948.1 |
| 20260902011213 | 77 | 68 | 4.0 | 13.0 | 0.00 | 0.00 | 0.00 | 81 | 947.6 |
| 20260902010712 | 77 | 82 | 3.0 | 11.0 | 0.00 | 0.00 | 0.00 | 80 | 947.7 |
| 20260902010211 | 77 | 86 | 1.0 | 11.0 | 0.00 | 0.00 | 0.00 | 82 | 947.5 |
| 20260902005709 | 77 | 67 | 4.0 | 11.0 | 0.00 | 0.00 | 0.00 | 82 | 947.4 |
| 20260902005208 | 77 | 35 | 3.0 | 11.0 | 0.00 | 0.00 | 0.00 | 81 | 947.7 |
| 20260902004707 | 77 | 42 | 5.0 | 11.0 | 0.00 | 0.00 | 0.00 | 81 | 947.7 |
| 20260902004206 | 77 | 35 | 4.0 | 13.0 | 0.00 | 0.00 | 0.00 | 80 | 947.4 |
| 20260902003705 | 77 | 52 | 3.0 | 13.0 | 0.00 | 0.00 | 0.00 | 84 | 947.4 |
| 20260902003204 | 77 | 43 | 4.0 | 13.0 | 0.00 | 0.00 | 0.00 | 83 | 947.2 |
| 20260902002703 | 77 | 40 | 3.0 | 13.0 | 0.00 | 0.00 | 0.00 | 83 | 947.4 |
| 20260902002201 | 76 | 67 | 4.0 | 13.0 | 0.00 | 0.00 | 0.00 | 83 | 947.4 |
| 20260902001700 | 76 | 58 | 7.0 | 13.0 | 0.00 | 0.00 | 0.00 | 82 | 947.7 |
| 20260902001159 | 76 | 66 | 5.0 | 16.0 | 0.00 | 0.00 | 0.00 | 84 | 947.3 |
| 20260902000658 | 76 | 51 | 6.0 | 16.0 | 0.00 | 0.00 | 0.00 | 84 | 947.1 |
| 20260902000157 | 77 | 64 | 5.0 | 13.0 | 0.00 | 0.00 | 0.00 | 84 | 947.2 |
| 20260901235655 | 77 | 41 | 6.0 | 13.0 | 0.00 | 0.00 | 0.00 | 82 | 947.2 |
| 20260901235154 | 77 | 56 | 6.0 | 12.0 | 0.00 | 0.00 | 0.00 | 83 | 947.6 |
| 20260901234653 | 77 | 44 | 7.0 | 14.0 | 0.00 | 0.00 | 0.00 | 82 | 947.7 |
| 20260901234152 | 77 | 42 | 7.0 | 14.0 | 0.00 | 0.00 | 0.00 | 82 | 947.6 |
| 20260901233135 | 77 | 51 | 6.0 | 18.0 | 0.00 | 0.00 | 0.00 | 83 | 947.4 |
| 20260901232634 | 77 | 46 | 4.0 | 19.0 | 0.00 | 0.00 | 0.00 | 84 | 947.5 |
| 20260901232133 | 77 | 40 | 5.0 | 19.0 | 0.00 | 0.00 | 0.00 | 85 | 947.8 |
| 20260901231632 | 76 | 44 | 7.0 | 14.0 | 0.00 | 0.00 | 0.00 | 83 | 947.5 |
| 20260901231131 | 76 | 54 | 5.0 | 14.0 | 0.00 | 0.00 | 0.00 | 86 | 947.7 |
| 20260901230630 | 77 | 58 | 5.0 | 18.0 | 0.00 | 0.00 | 0.00 | 87 | 947.9 |
| 20260901230129 | 76 | 71 | 6.0 | 19.0 | 0.00 | 0.00 | 0.00 | 86 | 947.8 |
| 20260901225628 | 77 | 69 | 8.0 | 20.0 | 0.00 | 0.00 | 0.00 | 84 | 948.0 |
| 20260901225127 | 77 | 63 | 5.0 | 20.0 | 0.00 | 0.00 | 0.00 | 84 | 948.2 |
| 20260901224110 | 76 | 48 | 6.0 | 14.0 | 0.00 | 0.00 | 0.00 | 85 | 948.1 |
| 20260901223609 | 77 | 62 | 6.0 | 14.0 | 0.00 | 0.00 | 0.00 | 85 | 948.3 |
| 20260901223108 | 76 | 53 | 7.0 | 15.0 | 0.00 | 0.00 | 0.00 | 84 | 948.3 |
| 20260901222607 | 76 | 86 | 5.0 | 19.0 | 0.00 | 0.00 | 0.00 | 86 | 948.4 |
| 20260901222106 | 76 | 67 | 7.0 | 19.0 | 0.00 | 0.00 | 0.00 | 83 | 948.3 |
| 20260901221605 | 76 | 56 | 6.0 | 15.0 | 0.00 | 0.00 | 0.00 | 84 | 948.4 |
| 20260901221104 | 76 | 62 | 6.0 | 15.0 | 0.00 | 0.00 | 0.00 | 85 | 948.5 |
| 20260901220603 | 76 | 80 | 7.0 | 15.0 | 0.00 | 0.00 | 0.00 | 86 | 948.3 |
| 20260901215601 | 76 | 72 | 9.0 | 19.0 | 0.00 | 0.00 | 0.00 | 85 | 948.5 |
| 20260901215100 | 76 | 67 | 7.0 | 19.0 | 0.00 | 0.00 | 0.00 | 85 | 948.3 |
| 20260901214559 | 76 | 70 | 7.0 | 15.0 | 0.00 | 0.00 | 0.00 | 87 | 948.5 |
| 20260901214057 | 75 | 66 | 6.0 | 16.0 | 0.00 | 0.00 | 0.00 | 88 | 948.8 |
| 20260901213556 | 76 | 76 | 7.0 | 16.0 | 0.00 | 0.00 | 0.00 | 87 | 948.7 |
| 20260901213055 | 76 | 66 | 7.0 | 16.0 | 0.00 | 0.00 | 0.00 | 85 | 948.6 |
| 20260901212038 | 75 | 66 | 7.0 | 15.0 | 0.00 | 0.00 | 0.00 | 88 | 948.8 |
| 20260901211020 | 75 | 62 | 6.0 | 16.0 | 0.00 | 0.00 | 0.00 | 90 | 948.8 |
| 20260901210519 | 74 | 65 | 8.0 | 19.0 | 0.00 | 0.00 | 0.00 | 89 | 948.7 |
| 20260901210018 | 74 | 57 | 7.0 | 19.0 | 0.00 | 0.00 | 0.00 | 90 | 948.1 |
| 20260901205517 | 74 | 63 | 8.0 | 15.0 | 0.00 | 0.00 | 0.00 | 89 | 948.9 |
| 20260901205016 | 74 | 54 | 8.0 | 14.0 | 0.00 | 0.00 | 0.00 | 90 | 948.3 |
| 20260901204515 | 74 | 46 | 9.0 | 18.0 | 0.00 | 0.00 | 0.00 | 88 | 948.3 |
| 20260901204014 | 74 | 48 | 8.0 | 18.0 | 0.00 | 0.00 | 0.00 | 88 | 948.6 |
| 20260901202440 | 73 | 50 | 9.0 | 22.0 | 0.00 | 0.00 | 0.00 | 89 | 948.6 |
| 20260901201939 | 73 | 55 | 8.0 | 22.0 | 0.00 | 0.00 | 0.00 | 90 | 948.6 |
| 20260901201438 | 73 | 45 | 8.0 | 20.0 | 0.00 | 0.00 | 0.00 | 91 | 948.6 |
| 20260901200937 | 72 | 53 | 8.0 | 20.0 | 0.00 | 0.00 | 0.00 | 91 | 948.9 |
| 20260901200436 | 72 | 53 | 8.0 | 19.0 | 0.00 | 0.00 | 0.00 | 91 | 948.6 |
| 20260901195935 | 73 | 46 | 9.0 | 19.0 | 0.00 | 0.00 | 0.00 | 91 | 948.5 |
| 20260901195434 | 72 | 55 | 9.0 | 21.0 | 0.00 | 0.00 | 0.00 | 91 | 948.7 |
| 20260901194933 | 72 | 48 | 8.0 | 21.0 | 0.00 | 0.00 | 0.00 | 92 | 948.3 |
| 20260901194432 | 72 | 47 | 9.0 | 19.0 | 0.00 | 0.00 | 0.00 | 93 | 948.6 |
| 20260901193931 | 72 | 43 | 9.0 | 20.0 | 0.00 | 0.00 | 0.00 | 93 | 948.4 |
| 20260901193430 | 71 | 50 | 10.0 | 20.0 | 0.00 | 0.00 | 0.00 | 93 | 948.5 |
| 20260901192412 | 70 | 46 | 9.0 | 21.0 | 0.00 | 0.00 | 0.00 | 95 | 948.5 |
| 20260901191911 | 70 | 47 | 9.0 | 21.0 | 0.00 | 0.00 | 0.00 | 95 | 948.4 |
| 20260901191410 | 70 | 47 | 8.0 | 16.0 | 0.00 | 0.00 | 0.00 | 96 | 948.6 |
| 20260901190909 | 69 | 46 | 9.0 | 16.0 | 0.00 | 0.00 | 0.00 | 96 | 948.3 |
| 20260901185852 | 69 | 54 | 8.0 | 20.0 | 0.00 | 0.00 | 0.00 | 97 | 948.8 |
| 20260901185351 | 69 | 59 | 9.0 | 18.0 | 0.00 | 0.00 | 0.00 | 97 | 948.3 |
| 20260901184849 | 69 | 56 | 8.0 | 18.0 | 0.00 | 0.00 | 0.00 | 97 | 948.3 |
| 20260901184348 | 68 | 59 | 8.0 | 18.0 | 0.00 | 0.00 | 0.00 | 97 | 948.5 |
| 20260901183846 | 68 | 60 | 7.0 | 19.0 | 0.00 | 0.00 | 0.00 | 98 | 948.4 |
| 20260901183345 | 68 | 58 | 9.0 | 19.0 | 0.00 | 0.00 | 0.00 | 97 | 948.4 |
| 20260901182844 | 68 | 59 | 8.0 | 14.0 | 0.00 | 0.00 | 0.00 | 98 | 948.4 |
| 20260901182343 | 68 | 52 | 8.0 | 15.0 | 0.00 | 0.00 | 0.00 | 98 | 948.4 |
| 20260901181326 | 68 | 58 | 7.0 | 18.0 | 0.00 | 0.00 | 0.00 | 98 | 948.5 |
| 20260901180825 | 69 | 60 | 5.0 | 19.0 | 0.00 | 0.00 | 0.00 | 98 | 948.3 |
| 20260901180324 | 69 | 68 | 8.0 | 19.0 | 0.00 | 0.00 | 0.00 | 98 | 948.5 |
| 20260901175823 | 68 | 70 | 9.0 | 19.0 | 0.00 | 0.00 | 0.00 | 98 | 948.5 |
| 20260901175323 | 68 | 57 | 6.0 | 14.0 | 0.00 | 0.00 | 0.00 | 99 | 948.0 |
| 20260901174305 | 68 | 56 | 6.0 | 15.0 | 0.00 | 0.00 | 0.00 | 99 | 948.3 |
| 20260901173804 | 68 | 55 | 7.0 | 15.0 | 0.00 | 0.00 | 0.00 | 98 | 948.2 |
| 20260901173303 | 67 | 56 | 6.0 | 15.0 | 0.00 | 0.00 | 0.00 | 98 | 947.9 |
| 20260901172802 | 67 | 55 | 8.0 | 16.0 | 0.00 | 0.00 | 0.00 | 98 | 948.0 |
| 20260901172300 | 67 | 49 | 8.0 | 16.0 | 0.00 | 0.00 | 0.00 | 98 | 948.0 |
| 20260901171759 | 67 | 48 | 8.0 | 16.0 | 0.00 | 0.00 | 0.00 | 98 | 948.0 |
| 20260901171258 | 67 | 45 | 8.0 | 16.0 | 0.00 | 0.00 | 0.00 | 98 | 947.8 |
| 20260901170758 | 67 | 54 | 7.0 | 20.0 | 0.00 | 0.00 | 0.00 | 97 | 947.6 |
| 20260901170255 | 67 | 56 | 9.0 | 20.0 | 0.00 | 0.00 | 0.00 | 98 | 947.8 |
| 20260901165754 | 67 | 56 | 8.0 | 19.0 | 0.00 | 0.00 | 0.00 | 98 | 948.2 |
| 20260901165253 | 67 | 54 | 7.0 | 19.0 | 0.00 | 0.00 | 0.00 | 97 | 947.9 |
| 20260901164752 | 67 | 58 | 7.0 | 19.0 | 0.00 | 0.00 | 0.00 | 97 | 948.0 |
| 20260901164251 | 67 | 50 | 7.0 | 15.0 | 0.00 | 0.00 | 0.00 | 98 | 947.8 |
| 20260901163750 | 67 | 56 | 6.0 | 16.0 | 0.00 | 0.00 | 0.00 | 98 | 947.9 |
| 20260901163249 | 67 | 56 | 7.0 | 16.0 | 0.00 | 0.00 | 0.00 | 98 | 947.6 |
| 20260901162749 | 68 | 67 | 7.0 | 16.0 | 0.00 | 0.00 | 0.00 | 98 | 948.0 |
| 20260901161732 | 68 | 55 | 5.0 | 16.0 | 0.00 | 0.00 | 0.00 | 98 | 947.7 |
| 20260901161230 | 68 | 60 | 4.0 | 13.0 | 0.00 | 0.00 | 0.00 | 98 | 947.9 |
| 20260901160730 | 68 | 64 | 6.0 | 15.0 | 0.00 | 0.00 | 0.00 | 98 | 947.9 |
| 20260901160229 | 68 | 78 | 7.0 | 15.0 | 0.00 | 0.00 | 0.00 | 98 | 948.1 |
| 20260901155727 | 68 | 89 | 4.0 | 19.0 | 0.00 | 0.00 | 0.00 | 98 | 947.7 |
| 20260901154711 | 68 | 82 | 4.0 | 13.0 | 0.00 | 0.00 | 0.00 | 98 | 948.0 |
| 20260901153654 | 68 | 79 | 5.0 | 12.0 | 0.00 | 0.00 | 0.00 | 98 | 947.7 |
| 20260901153153 | 68 | 59 | 4.0 | 12.0 | 0.00 | 0.00 | 0.00 | 98 | 947.8 |
| 20260901152652 | 68 | 65 | 4.0 | 12.0 | 0.00 | 0.00 | 0.00 | 99 | 947.7 |
| 20260901152149 | 68 | 77 | 3.0 | 12.0 | 0.00 | 0.00 | 0.00 | 99 | 947.9 |
| 20260901151649 | 68 | 87 | 3.0 | 12.0 | 0.00 | 0.00 | 0.00 | 99 | 947.9 |
| 20260901151147 | 67 | 92 | 2.0 | 12.0 | 0.00 | 0.00 | 0.00 | 98 | 947.8 |
| 20260901150130 | 68 | 90 | 2.0 | 12.0 | 0.00 | 0.00 | 0.00 | 98 | 947.8 |
| 20260901145630 | 67 | 51 | 3.0 | 12.0 | 0.00 | 0.00 | 0.00 | 98 | 947.8 |
| 20260901145128 | 67 | 66 | 2.0 | 12.0 | 0.00 | 0.00 | 0.00 | 98 | 947.8 |
| 20260901144627 | 67 | 67 | 0.0 | 12.0 | 0.00 | 0.00 | 0.00 | 98 | 948.0 |
| 20260901143610 | 67 | 76 | 3.0 | 12.0 | 0.00 | 0.00 | 0.00 | 98 | 947.5 |
| 20260901143109 | 67 | 73 | 5.0 | 11.0 | 0.00 | 0.00 | 0.00 | 98 | 947.4 |
| 20260901142607 | 67 | 75 | 2.0 | 13.0 | 0.00 | 0.00 | 0.00 | 98 | 947.5 |
| 20260901142106 | 67 | 68 | 4.0 | 13.0 | 0.00 | 0.00 | 0.00 | 98 | 947.3 |
| 20260901141606 | 67 | 72 | 3.0 | 18.0 | 0.00 | 0.00 | 0.00 | 98 | 947.4 |
| 20260901141105 | 67 | 79 | 6.0 | 18.0 | 0.00 | 0.00 | 0.00 | 98 | 947.2 |
| 20260901140048 | 67 | 83 | 4.0 | 12.0 | 0.00 | 0.00 | 0.00 | 98 | 947.4 |
| 20260901135547 | 67 | 68 | 4.0 | 12.0 | 0.00 | 0.00 | 0.00 | 98 | 947.4 |
| 20260901135046 | 67 | 55 | 2.0 | 12.0 | 0.00 | 0.00 | 0.00 | 98 | 947.2 |
| 20260901134545 | 67 | 56 | 4.0 | 12.0 | 0.00 | 0.00 | 0.00 | 98 | 947.3 |
| 20260901134044 | 67 | 50 | 4.0 | 12.0 | 0.00 | 0.00 | 0.00 | 98 | 947.4 |
| 20260901133543 | 67 | 50 | 4.0 | 19.0 | 0.00 | 0.00 | 0.00 | 98 | 947.4 |
| 20260901133042 | 67 | 55 | 4.0 | 19.0 | 0.00 | 0.00 | 0.00 | 98 | 947.4 |
| 20260901132541 | 67 | 59 | 5.0 | 18.0 | 0.00 | 0.00 | 0.00 | 98 | 947.6 |
| 20260901131523 | 67 | 65 | 6.0 | 14.0 | 0.00 | 0.00 | 0.00 | 97 | 947.4 |
| 20260901131022 | 67 | 68 | 6.0 | 13.0 | 0.00 | 0.00 | 0.00 | 97 | 947.4 |
| 20260901130521 | 67 | 87 | 5.0 | 13.0 | 0.00 | 0.00 | 0.00 | 97 | 947.6 |
| 20260901130020 | 67 | 82 | 6.0 | 12.0 | 0.00 | 0.00 | 0.00 | 98 | 947.7 |
| 20260901125519 | 67 | 80 | 4.0 | 12.0 | 0.00 | 0.00 | 0.00 | 98 | 947.6 |
| 20260901125018 | 67 | 74 | 3.0 | 11.0 | 0.00 | 0.00 | 0.00 | 98 | 947.9 |
| 20260901124517 | 67 | 63 | 4.0 | 11.0 | 0.00 | 0.00 | 0.00 | 98 | 948.0 |
| 20260901124016 | 67 | 62 | 3.0 | 11.0 | 0.00 | 0.00 | 0.00 | 98 | 948.0 |
| 20260901123515 | 67 | 57 | 2.0 | 11.0 | 0.00 | 0.00 | 0.00 | 98 | 948.1 |
| 20260901123014 | 67 | 57 | 3.0 | 11.0 | 0.00 | 0.00 | 0.00 | 98 | 947.8 |
| 20260901122513 | 68 | 59 | 2.0 | 11.0 | 0.00 | 0.00 | 0.00 | 98 | 948.1 |
| 20260901122012 | 68 | 86 | 2.0 | 11.0 | 0.00 | 0.00 | 0.00 | 98 | 948.2 |
| 20260901121510 | 68 | 78 | 2.0 | 11.0 | 0.00 | 0.00 | 0.00 | 98 | 948.3 |
| 20260901120453 | 68 | 75 | 4.0 | 11.0 | 0.00 | 0.00 | 0.00 | 98 | 948.2 |
| 20260901115952 | 68 | 66 | 3.0 | 11.0 | 0.00 | 0.00 | 0.00 | 97 | 948.2 |
| 20260901115451 | 68 | 68 | 4.0 | 12.0 | 0.00 | 0.00 | 0.00 | 97 | 948.2 |
| 20260901114949 | 68 | 70 | 5.0 | 12.0 | 0.00 | 0.00 | 0.00 | 97 | 948.0 |
| 20260901114448 | 68 | 83 | 5.0 | 13.0 | 0.00 | 0.00 | 0.00 | 97 | 948.5 |
| 20260901113947 | 68 | 88 | 6.0 | 13.0 | 0.00 | 0.00 | 0.00 | 97 | 948.2 |
| 20260901112930 | 68 | 78 | 4.0 | 14.0 | 0.00 | 0.00 | 0.00 | 97 | 948.3 |
| 20260901112429 | 68 | 97 | 6.0 | 14.0 | 0.00 | 0.00 | 0.00 | 98 | 948.2 |
| 20260901111928 | 68 | 95 | 5.0 | 12.0 | 0.00 | 0.00 | 0.00 | 98 | 948.3 |
| 20260901111427 | 68 | 96 | 4.0 | 12.0 | 0.00 | 0.00 | 0.00 | 98 | 948.3 |
| 20260901110926 | 68 | 85 | 4.0 | 11.0 | 0.00 | 0.00 | 0.00 | 98 | 948.4 |
| 20260901110425 | 68 | 92 | 3.0 | 11.0 | 0.00 | 0.00 | 0.00 | 98 | 948.5 |
| 20260901105924 | 68 | 88 | 3.0 | 11.0 | 0.00 | 0.00 | 0.00 | 98 | 948.6 |
| 20260901105423 | 68 | 64 | 4.0 | 11.0 | 0.00 | 0.00 | 0.00 | 98 | 948.7 |
| 20260901104406 | 68 | 55 | 2.0 | 11.0 | 0.00 | 0.00 | 0.00 | 98 | 948.6 |
| 20260901103904 | 68 | 58 | 5.0 | 11.0 | 0.00 | 0.00 | 0.00 | 98 | 948.5 |
| 20260901103403 | 68 | 63 | 3.0 | 12.0 | 0.00 | 0.00 | 0.00 | 97 | 948.6 |
| 20260901102902 | 68 | 64 | 5.0 | 13.0 | 0.00 | 0.00 | 0.00 | 97 | 948.8 |
| 20260901102401 | 68 | 61 | 4.0 | 19.0 | 0.00 | 0.00 | 0.00 | 97 | 948.8 |